This demonstration page uses our WeatherBlox Daily Observations layout. Learn more.

Left ArrowRight Arrow

39.95238, -75.16362

Hourly Observations for June 15, 2022

Temp ( °F °C ) Dew Point ( °F °C ) Humidity (%) Winds ( mph kmh ) Pressure ( in mb ) Visibility ( mi km ) Precip ( " mm )
12:54 am 00:54 Clear 72 22.2 63 17.2 73 73 SSW 3 6 29.97 1015 10 16 0.00 0.00
1:54 am 01:54 Clear 69 20.6 62 16.7 78 78 SSE 3 6 29.98 1015 10 16 0.00 0.00
2:54 am 02:54 Clear 67 19.4 61 16.1 81 81 ESE 7 11 29.98 1015 10 16 0.00 0.00
3:54 am 03:54 Mostly Clear 68 20 60 15.6 76 76 SSW 3 6 30.00 1016 10 16 0.00 0.00
4:54 am 04:54 Mostly Clear 68 20 61 16.1 78 78 WSW 3 6 30.01 1016 10 16 0.00 0.00
5:54 am 05:54 Mostly Sunny 66 18.9 60 15.6 81 81 NNW 6 9 30.02 1017 10 16 0.00 0.00
6:54 am 06:54 Mostly Sunny 70 21.1 62 16.7 76 76 Calm 30.04 1017 10 16 0.00 0.00
7:54 am 07:54 Partly Cloudy 74 23.3 63 17.2 69 69 Calm 30.04 1017 10 16 0.00 0.00
8:54 am 08:54 Partly Cloudy 78 25.6 63 17.2 60 60 NNE 3 6 30.06 1018 10 16 0.00 0.00
9:54 am 09:54 Partly Cloudy 81 27.2 62 16.7 53 53 ENE 5 7 30.08 1019 10 16 0.00 0.00
10:54 am 10:54 Partly Cloudy 83 28.3 59 15 44 44 E 6 9 30.09 1019 10 16 0.00 0.00
11:54 am 11:54 Partly Cloudy 84 28.9 58 14.4 41 41 Calm 30.09 1019 10 16 0.00 0.00
12:54 pm 12:54 Partly Cloudy 84 28.9 59 15 43 43 VRB 5 7 30.10 1019 10 16 0.00 0.00
1:54 pm 13:54 Partly Cloudy 86 30 60 15.6 42 42 Calm 30.09 1019 10 16 0.00 0.00
2:54 pm 14:54 Partly Cloudy 87 30.6 60 15.6 40 40 Calm 30.09 1019 10 16 0.00 0.00
3:54 pm 15:54 Partly Cloudy 86 30 58 14.4 39 39 Calm 30.08 1019 10 16 0.00 0.00
4:54 pm 16:54 Partly Cloudy 86 30 59 15 40 40 S 9 15 30.06 1018 10 16 0.00 0.00
5:54 pm 17:54 Partly Cloudy 83 28.3 61 16.1 48 48 SSE 14 22 30.06 1018 10 16 0.00 0.00
6:54 pm 18:54 Partly Cloudy 80 26.7 61 16.1 52 52 SE 10 17 30.08 1019 10 16 0.00 0.00
7:54 pm 19:54 Partly Cloudy 77 25 59 15 54 54 SSE 9 15 30.10 1019 10 16 0.00 0.00
8:54 pm 20:54 Partly Cloudy 73 22.8 60 15.6 64 64 SE 10 17 30.13 1020 10 16 0.00 0.00
9:54 pm 21:54 Mostly Cloudy 72 22.2 60 15.6 66 66 SSE 8 13 30.15 1021 10 16 0.00 0.00
10:54 pm 22:54 Cloudy 70 21.1 60 15.6 71 71 SE 8 13 30.16 1021 10 16 0.00 0.00
11:54 pm 23:54 Cloudy 70 21.1 60 15.6 71 71 SE 5 7 30.16 1022 10 16 0.00 0.00

Powered by AerisWeather